TimeEDT,TemperatureF,Dew PointF,Humidity,Sea Level PressureIn,VisibilityMPH,Wind Direction,Wind SpeedMPH,Gust SpeedMPH,PrecipitationIn,Events,Conditions,WindDirDegrees,DateUTC
12:51 AM,30.2,28.4,93,30.40,5.0,Calm,Calm,-,N/A,,Clear,0,2012-10-13 04:51:00
1:14 AM,30.2,28.4,93,30.39,6.0,Calm,Calm,-,N/A,,Scattered Clouds,0,2012-10-13 05:14:00
1:17 AM,30.2,28.4,93,30.40,1.8,Calm,Calm,-,N/A,,Mostly Cloudy,0,2012-10-13 05:17:00
1:24 AM,30.2,28.4,93,30.40,0.2,Calm,Calm,-,N/A,Fog,Light Freezing Fog,0,2012-10-13 05:24:00
1:48 AM,30.2,28.4,93,30.39,0.5,Calm,Calm,-,N/A,Fog,Light Freezing Fog,0,2012-10-13 05:48:00
1:51 AM,30.2,28.4,93,30.39,0.5,Calm,Calm,-,N/A,Fog,Light Freezing Fog,0,2012-10-13 05:51:00
2:02 AM,30.2,28.4,93,30.39,0.2,Calm,Calm,-,N/A,Fog,Light Freezing Fog,0,2012-10-13 06:02:00
2:51 AM,30.2,30.2,100,30.39,0.2,Calm,Calm,-,N/A,Fog,Light Freezing Fog,0,2012-10-13 06:51:00
3:34 AM,30.2,28.4,93,30.39,0.8,Calm,Calm,-,N/A,,Mist,0,2012-10-13 07:34:00
3:51 AM,30.9,28.9,92,30.43,0.5,Calm,Calm,-,N/A,Fog,Light Freezing Fog,0,2012-10-13 07:51:00
4:24 AM,30.2,28.4,93,30.39,2.0,Calm,Calm,-,N/A,,Mostly Cloudy,0,2012-10-13 08:24:00
4:31 AM,30.2,28.4,93,30.39,6.0,Calm,Calm,-,N/A,,Overcast,0,2012-10-13 08:31:00
4:51 AM,30.0,28.9,96,30.44,5.0,Calm,Calm,-,N/A,,Overcast,0,2012-10-13 08:51:00
4:56 AM,30.2,28.4,93,30.39,1.5,Calm,Calm,-,N/A,,Overcast,0,2012-10-13 08:56:00
5:05 AM,30.2,28.4,93,30.39,0.5,Calm,Calm,-,N/A,Fog,Light Freezing Fog,0,2012-10-13 09:05:00
5:23 AM,30.2,30.2,100,30.41,0.2,Calm,Calm,-,N/A,Fog,Light Freezing Fog,0,2012-10-13 09:23:00
5:51 AM,30.0,28.9,96,30.45,0.2,Calm,Calm,-,N/A,Fog,Light Freezing Fog,0,2012-10-13 09:51:00
5:58 AM,30.2,28.4,93,30.40,0.5,Calm,Calm,-,N/A,Fog,Light Freezing Fog,0,2012-10-13 09:58:00
6:23 AM,30.2,28.4,93,30.40,1.2,Calm,Calm,-,N/A,,Overcast,0,2012-10-13 10:23:00
6:30 AM,30.2,28.4,93,30.40,3.0,Calm,Calm,-,N/A,,Overcast,0,2012-10-13 10:30:00
6:51 AM,28.4,28.4,100,30.40,6.0,Calm,Calm,-,N/A,,Mostly Cloudy,0,2012-10-13 10:51:00
7:04 AM,28.4,26.6,93,30.40,8.0,Calm,Calm,-,N/A,,Partly Cloudy,0,2012-10-13 11:04:00
7:51 AM,28.9,27.0,92,30.49,6.0,Calm,Calm,-,N/A,,Clear,0,2012-10-13 11:51:00
8:51 AM,32.0,30.0,92,30.47,7.0,Calm,Calm,-,0.02,,Clear,0,2012-10-13 12:51:00
9:51 AM,43.0,37.0,80,30.46,10.0,Calm,Calm,-,0.02,,Clear,0,2012-10-13 13:51:00
10:51 AM,51.8,37.4,58,30.39,10.0,South,6.9,-,N/A,,Clear,190,2012-10-13 14:51:00
11:51 AM,57.9,39.0,49,30.39,10.0,Variable,4.6,-,N/A,,Clear,0,2012-10-13 15:51:00
12:51 PM,63.0,37.9,40,30.35,10.0,South,10.4,18.4,N/A,,Clear,180,2012-10-13 16:51:00
1:51 PM,66.2,37.4,35,30.28,10.0,South,9.2,-,N/A,,Clear,180,2012-10-13 17:51:00
2:51 PM,69.1,37.9,32,30.28,10.0,South,9.2,-,N/A,,Clear,190,2012-10-13 18:51:00
3:51 PM,69.1,37.9,32,30.27,10.0,South,10.4,-,N/A,,Clear,170,2012-10-13 19:51:00
4:51 PM,69.1,37.9,32,30.25,10.0,SSW,6.9,-,N/A,,Clear,210,2012-10-13 20:51:00
5:51 PM,66.9,39.0,36,30.25,10.0,SSW,4.6,-,N/A,,Clear,200,2012-10-13 21:51:00
6:51 PM,59.0,39.9,49,30.27,10.0,SSE,6.9,-,N/A,,Clear,160,2012-10-13 22:51:00
7:51 PM,57.9,39.0,49,30.28,10.0,South,4.6,-,N/A,,Clear,170,2012-10-13 23:51:00
8:51 PM,55.9,39.0,53,30.30,10.0,SSE,9.2,-,N/A,,Clear,150,2012-10-14 00:51:00
9:51 PM,55.4,39.2,54,30.23,10.0,SSE,5.8,-,N/A,,Clear,160,2012-10-14 01:51:00
10:51 PM,53.1,39.0,59,30.23,10.0,SE,6.9,-,N/A,,Clear,140,2012-10-14 02:51:00
11:51 PM,51.8,39.2,62,30.21,10.0,SE,5.8,-,N/A,,Clear,130,2012-10-14 03:51:00